SCP
0 0 0 0 0 0 0 0 0 0 0 0 0 0 0 0 0 0 0 0 0 0 0 0 0 0 0 0 0 0 0 0 0 0 0 0 0 0 0 0 0 0 0
0 0 0 0 0 0 0 0 0 0 0 0 0 0 0 0 0 0 0 0 0 0 0 0 0 0 0 0 0 0 0 0 0 0 0 0 0 0 0 0 0 0 0
0 0 0 0 0 0 0 0 0 0 0 0 0 0 0 0 0 0 0 0 0 0 0 0 0 0 0 0 0 0 0 0 0 0 0 0 0 0 0 0 0 0 0
0 0 0 0 0 0 0 0 0 0 0 0 0 0 0 0 0 0 0 0 0 0 0 0 0 0 0 0 0 0 0 0 0 0 0 0 0 0 0 0 0 0 0
0 0 0 0 0 0 0 0 0 0 0 0 0 0 0 0 0 0 0 0 0 0 0 0 0 0 0 0 0 0 0 0 0 0 0 0 0 0 0 0 0 0 0
0 0 0 0 0 0 0 0 0 0 0 0 0 0 0 0 0 0 0 0 0 0 0 0 0 0 0 0 0 0 0 0 0 0 0 0 0 0 0 0 0 0 0
1 1 1 1 0 0 0 0 0 0 0 0 0 0 0 0 0 0 0 0 0 0 0 0 0 0 0 0 0 0 0 0 0 0 0 0 0 0 0 0 0 0 0
1 1 1 1 0 0 0 0 0 0 0 0 0 0 0 0 0 0 0 0 0 0 0 0 0 0 0 0 0 0 0 0 0 0 0 0 0 0 0 0 0 0 0
1 1 1 1 0 0 0 0 0 0 0 0 0 0 0 0 0 0 0 0 0 0 0 0 0 0 0 0 0 0 0 0 0 0 0 0 0 0 0 0 0 0 0
1 1 1 0 0 0 0 0 0 0 0 0 0 0 0 0 0 0 0 0 0 0 0 0 0 0 0 0 0 0 0 0 0 0 0 0 0 0 0 0 0 0 0
1 1 1 1 0 0 0 1 1 1 0 0 0 0 0 0 0 0 0 0 0 0 0 0 0 0 0 0 0 0 0 0 0 0 0 0 0 0 0 0 0 0 0
1 1 1 1 1 1 1 1 1 1 0 0 0 0 0 0 0 0 0 0 0 0 0 0 0 0 0 0 0 0 0 0 0 0 0 0 0 0 0 0 0 0 0
1 1 1 1 1 1 1 1 1 1 0 0 0 0 0 0 0 0 0 0 0 0 0 0 0 0 0 0 0 0 0 0 0 0 0 0 0 0 0 0 0 0 0
1 1 1 1 1 1 1 1 1 1 1 1 0 0 0 0 0 0 0 0 0 0 0 0 0 0 0 0 0 0 0 0 0 0 0 0 0 0 0 0 0 0 0
1 1 1 1 1 1 1 1 1 1 1 1 1 0 0 0 0 0 0 0 0 0 0 0 0 0 0 0 0 0 0 0 0 0 0 0 0 0 0 0 0 0 0
1 1 1 1 1 1 1 1 1 1 1 1 1 1 0 0 0 0 0 0 0 0 0 0 0 0 0 0 0 0 0 0 0 0 0 0 0 0 0 0 0 0 0
1 1 1 1 1 1 1 1 1 1 1 1 1 1 1 1 1 1 1 0 0 0 0 0 0 0 0 0 0 0 0 0 0 0 0 0 0 0 0 0 0 0 0
1 1 1 1 1 1 1 1 1 1 1 1 1 1 1 1 1 1 1 1 0 0 0 0 0 0 0 0 0 0 0 0 0 0 0 0 0 0 0 0 0 0 0
1 1 1 1 1 1 1 1 1 1 1 1 1 1 1 1 1 1 1 1 1 0 0 0 0 0 0 0 0 0 0 0 0 0 0 0 0 0 0 0 0 0 0
1 1 1 1 1 1 1 1 1 1 1 1 1 1 1 1 1 1 1 1 1 1 0 0 0 0 0 0 0 0 0 0 0 0 0 0 0 0 0 0 0 0 0
1 1 1 1 1 1 1 1 1 1 1 1 1 1 1 1 1 1 1 1 1 1 0 0 0 0 0 0 0 0 0 0 0 0 0 0 0 0 0 0 0 0 0
1 1 1 1 0 0 0 0 0 0 0 1 1 1 1 1 1 1 1 1 1 1 0 0 0 0 0 0 0 0 0 0 0 0 0 0 0 0 0 0 0 0 0
1 1 1 1 0 0 0 0 0 0 0 0 0 1 1 1 1 1 1 1 1 1 0 0 0 0 0 0 0 0 0 0 0 0 0 0 0 0 0 0 0 0 0
1 1 1 1 0 0 0 0 0 0 0 0 0 1 1 1 1 0 0 0 0 0 0 0 0 0 0 0 0 0 0 0 0 0 0 0 0 0 0 0 0 0 0
1 1 1 1 0 0 0 0 0 0 0 0 0 0 0 0 0 0 0 0 0 0 0 0 0 0 0 0 0 0 0 0 0 0 0 0 0 0 0 0 0 0 0
1 1 1 0 0 0 0 0 0 0 0 0 0 0 0 0 0 0 0 0 0 0 0 0 0 0 0 0 0 0 0 0 0 0 0 0 0 0 0 0 0 0 0
Wind_Speed
5 5 5 5 5 4 4 4 3 2 3 2 1 1 1 0 0 1 2 2 2 2 2 1 1 1 1 1 1 1 0 0 0 1 1 1 1 0 0 1 1 2 3
4 5 5 5 6 5 5 4 3 3 3 2 2 2 1 1 1 1 1 1 2 2 2 2 2 1 1 1 1 1 1 0 1 1 1 1 2 2 1 0 1 1 1
8 7 7 6 5 6 6 5 4 3 3 3 2 2 2 1 1 1 1 1 1 2 2 2 2 2 2 2 2 2 2 1 0 1 2 2 1 1 1 1 0 0 1
8 8 8 7 8 7 6 5 4 3 3 3 3 3 2 1 2 1 1 1 1 1 2 2 2 2 2 2 2 2 2 2 1 0 1 1 2 1 0 1 1 0 0
10 10 10 9 7 7 6 5 4 3 3 4 4 4 2 2 1 0 1 1 1 1 1 2 2 2 2 2 2 1 2 2 2 1 1 1 1 1 1 0 1 1 1
9 8 7 7 6 6 6 5 5 3 3 4 4 4 3 2 1 1 1 1 1 1 2 1 1 2 2 2 2 2 2 2 2 2 2 2 2 2 2 2 1 0 1
9 9 8 8 8 7 7 6 6 5 4 4 4 4 4 3 3 2 1 1 1 1 2 1 1 2 2 2 1 2 2 2 2 2 2 2 2 2 2 2 1 1 0
7 9 10 9 8 8 8 8 8 7 5 5 4 3 3 2 2 2 1 2 2 2 2 1 1 1 1 1 1 1 2 1 2 2 2 2 2 2 2 3 3 1 0
7 8 8 8 8 8 9 9 8 6 5 5 4 3 2 2 2 1 1 1 1 2 1 1 1 1 1 1 1 1 1 1 1 2 2 1 1 2 2 2 3 3 2
6 6 7 8 8 7 6 6 6 6 5 4 4 3 2 2 2 1 0 1 1 1 0 1 1 1 1 1 1 1 1 1 1 1 1 1 1 1 2 2 2 2 3
6 6 6 7 7 6 6 6 6 6 5 5 4 3 2 2 1 0 1 1 1 1 1 1 1 1 1 0 1 0 1 1 1 1 2 1 1 1 1 1 2 2 2
5 6 6 6 6 6 6 6 6 6 5 5 4 4 2 2 2 1 2 1 1 1 1 1 0 0 0 0 1 1 1 1 1 1 1 1 1 1 1 1 2 2 2
5 5 5 6 6 6 6 6 6 6 5 5 5 3 3 2 2 1 0 0 0 1 1 1 1 0 0 0 0 1 1 1 1 1 1 1 1 1 1 2 2 2 2
5 5 5 5 6 6 6 6 5 5 6 5 5 4 3 3 2 1 1 1 0 0 1 1 1 0 0 0 1 1 1 1 1 1 1 0 1 1 1 2 2 3 3
5 6 6 5 5 5 5 5 5 5 6 6 5 4 3 2 1 1 1 1 1 0 0 1 1 1 1 0 1 2 2 2 1 2 2 1 2 3 2 2 3 4 3
6 6 5 6 6 7 7 6 5 5 5 6 5 4 3 3 2 1 1 1 1 1 1 1 1 2 1 2 2 3 2 2 2 2 2 2 3 4 4 4 4 4 4
6 6 6 6 6 6 6 7 6 5 5 5 4 4 4 4 2 2 2 2 1 1 2 1 1 1 1 2 3 4 3 2 2 1 2 2 3 3 3 4 5 4 4
5 5 5 5 4 4 5 5 5 5 5 4 4 4 4 3 3 2 2 2 2 2 1 2 2 2 2 3 4 5 4 3 3 2 2 3 3 3 3 4 4 4 3
4 4 4 4 5 5 5 6 5 5 5 5 4 4 4 4 3 3 2 2 2 2 2 2 2 2 2 4 4 4 3 3 3 3 3 3 3 3 4 5 5 4 4
4 4 4 5 5 5 6 6 6 6 5 5 4 4 4 4 4 3 2 2 3 2 2 3 2 2 2 3 4 4 3 3 3 3 3 4 3 4 5 4 4 4 2
4 5 5 5 5 5 6 6 5 4 4 4 4 4 4 4 4 3 3 4 3 3 3 3 3 3 2 3 3 4 3 3 3 2 2 2 4 5 5 4 3 3 3
4 5 5 5 4 5 6 6 4 4 4 4 4 4 4 4 4 4 4 4 4 3 3 2 2 2 2 2 3 4 4 3 3 2 1 2 4 5 5 4 4 5 4
4 4 5 5 4 4 5 6 3 4 5 5 4 4 4 4 4 4 4 3 3 3 2 2 1 1 1 2 4 4 5 4 3 2 3 3 4 4 4 5 5 4 3
4 4 5 5 3 3 4 4 4 5 5 5 5 4 4 4 4 3 3 3 3 3 2 2 1 1 1 1 1 2 2 3 3 3 3 4 5 4 4 4 3 2 2
3 4 4 4 4 3 3 4 4 6 6 5 4 4 3 4 3 3 2 2 2 2 3 2 2 2 1 1 1 1 1 2 2 3 2 2 2 2 2 2 2 2 2
3 4 4 4 3 4 3 3 4 6 6 5 4 3 3 3 3 3 2 4 2 3 2 2 2 1 2 2 2 2 3 3 4 3 2 1 1 1 1 1 1 1 1
Wind_Direction
210 183 180 173 164 168 173 175 170 171 148 138 142 144 183 218 217 230 222 208 201 187 184 201 199 190 198 227 205 165 172 269 117 84 42 16 31 92 229 190 188 205 208
194 186 177 172 174 177 178 176 179 175 176 171 162 160 158 196 219 254 254 215 200 195 204 204 210 200 203 228 208 166 157 205 110 116 95 18 359 12 24 144 186 213 189
198 189 180 181 178 185 188 189 187 180 179 163 127 93 63 36 21 346 323 284 210 203 206 203 203 207 198 219 221 191 180 186 138 127 137 140 218 326 5 22 78 177 182
193 187 184 184 189 195 187 183 183 177 172 155 151 154 164 184 227 245 271 305 290 246 221 212 206 212 212 226 237 197 183 165 179 134 123 154 162 159 4 6 23 44 163
191 191 190 188 190 185 181 181 175 172 167 164 168 168 177 196 203 193 307 322 324 305 272 234 219 220 222 228 227 195 182 177 176 167 151 130 113 145 163 243 358 23 7
189 189 185 174 181 180 177 173 171 177 173 173 177 180 181 176 163 216 264 293 314 321 320 271 243 236 233 229 217 209 193 187 178 173 166 164 164 177 170 185 215 313 349
182 180 179 179 183 183 183 177 176 186 182 180 187 189 185 174 188 210 225 249 288 302 299 293 265 253 246 233 205 195 203 192 185 184 186 187 189 169 161 158 168 192 306
184 186 186 183 183 187 186 184 187 195 186 185 195 192 184 177 193 209 217 235 244 254 270 271 261 263 258 231 185 189 210 195 193 190 187 188 197 180 174 165 154 150 112
185 186 181 182 181 187 191 189 188 191 187 186 183 178 175 178 192 205 220 244 251 250 251 256 270 284 254 207 158 194 225 192 194 195 193 187 195 194 196 181 169 164 178
182 180 177 181 184 186 182 174 178 182 182 179 182 181 180 191 187 152 148 265 274 285 292 291 275 272 252 185 156 198 219 171 192 175 167 187 201 195 187 185 181 175 170
183 180 180 181 174 164 163 167 171 170 171 176 175 171 167 167 137 103 288 264 280 291 282 285 271 276 280 238 156 177 172 178 194 179 176 202 191 188 177 167 165 167 157
178 174 174 167 159 159 163 166 168 170 177 173 161 167 157 140 159 186 249 228 264 285 276 288 301 274 284 257 186 211 168 163 195 188 161 201 173 143 141 135 143 149 151
166 161 160 164 167 166 161 162 167 168 164 156 152 152 157 161 170 168 160 126 276 319 353 30 26 300 269 189 202 170 145 143 142 152 153 175 138 130 127 127 131 130 124
170 163 163 169 172 168 165 165 169 164 156 152 153 164 174 177 178 164 151 162 165 24 16 38 35 10 63 173 169 131 121 107 89 90 106 123 141 154 151 136 139 131 123
180 177 172 172 172 167 169 170 171 163 157 153 158 170 167 155 138 138 142 132 111 102 79 63 38 32 55 51 120 128 126 114 82 59 57 78 99 106 122 135 142 140 136
189 186 180 175 175 177 178 175 175 166 155 153 159 154 144 135 133 140 136 117 93 58 62 56 46 44 29 42 99 122 118 110 98 72 55 67 74 86 94 105 116 137 147
181 183 187 186 184 183 174 175 174 157 152 159 157 148 145 141 137 142 122 109 94 74 64 56 80 70 33 56 86 97 104 94 85 80 66 62 64 80 96 88 83 84 99
180 182 182 175 171 160 155 155 149 148 151 154 149 145 145 144 135 123 115 106 91 85 82 76 85 80 51 73 86 89 90 85 71 60 68 75 52 66 96 98 85 73 65
182 181 174 159 149 144 142 139 142 143 146 153 155 154 153 150 140 137 137 124 105 90 83 82 73 73 51 68 88 96 93 82 67 59 60 75 73 71 95 101 94 78 60
155 152 143 130 134 137 134 136 143 144 157 166 163 153 148 149 148 144 135 118 116 113 99 77 65 77 71 71 81 91 102 94 79 62 54 54 71 80 92 106 108 98 78
143 137 135 136 143 137 131 133 141 155 159 146 136 134 139 146 143 131 124 122 117 108 98 85 65 62 60 68 78 94 114 121 105 83 61 53 74 85 89 97 103 115 112
131 131 133 131 127 131 135 137 150 151 134 131 127 125 125 132 130 123 117 116 119 113 102 93 72 52 47 56 68 86 101 115 110 95 73 70 81 85 87 90 93 100 101
134 134 137 131 123 134 142 145 157 135 126 121 117 113 110 107 117 122 127 124 122 123 122 118 99 59 45 54 67 81 89 93 100 98 92 87 84 85 81 76 88 95 96
138 142 138 134 132 137 132 139 142 128 122 122 121 118 119 109 100 107 128 134 138 137 138 131 132 118 86 62 71 82 84 83 91 92 88 84 81 82 82 76 76 79 94
125 131 141 144 144 130 121 128 136 132 129 129 129 126 126 129 120 108 101 128 140 163 157 162 169 167 194 220 153 145 135 142 132 113 90 77 80 79 73 71 70 80 93
127 124 121 127 133 131 130 133 141 141 140 140 141 140 137 134 137 131 93 58 86 93 115 146 156 166 180 146 135 130 127 133 135 115 114 122 118 121 131 128 101 96 115